Wind_Speed
31 30 31 29 29 29 31 31 32 31 30 28 27 25 24 23 22 20 18 18 17 18 16 14 12 11 11 11 12 12 12 11 11 11 11 11 11 11 11 10 10 10 9 10
33 31 32 31 30 29 30 32 32 32 33 31 30 29 26 25 23 21 20 19 19 18 16 15 14 12 12 11 12 12 12 13 12 12 12 12 12 12 12 12 12 12 12 11
33 33 33 33 31 31 31 30 31 33 32 31 30 29 28 25 24 23 22 21 20 19 17 16 16 15 13 13 12 13 13 14 14 14 13 13 13 13 13 13 12 12 12 12
32 32 35 32 31 32 31 31 31 33 34 32 29 28 28 26 24 23 23 22 21 19 18 17 16 16 15 14 13 14 14 14 14 15 14 13 14 15 15 14 13 13 13 13
34 34 33 33 33 33 32 32 32 32 33 32 30 30 29 27 25 24 24 22 21 20 19 19 18 17 17 15 15 15 15 15 15 15 15 15 15 15 15 14 13 13 13 14
35 36 36 34 34 34 34 35 34 33 33 31 31 30 28 28 27 25 24 22 21 21 21 20 19 19 19 17 17 17 17 17 17 16 16 16 16 15 15 14 14 14 14 14
36 37 37 35 35 35 36 36 34 34 34 33 32 31 29 28 28 26 24 23 22 22 22 21 20 20 20 19 19 19 18 18 18 17 17 16 16 15 15 15 15 15 15 15
36 38 37 35 35 37 36 35 35 35 35 35 35 33 32 31 30 28 26 24 23 23 22 21 21 21 21 21 21 20 20 20 19 18 18 18 16 16 16 16 16 16 16 15
37 37 35 35 36 36 36 35 35 36 36 36 36 34 33 32 31 29 27 26 26 24 24 23 22 22 22 22 21 21 21 20 19 19 19 18 18 17 16 17 16 16 16 16
36 36 36 35 35 35 35 35 34 34 35 35 35 34 34 33 32 30 29 29 27 26 24 23 23 23 22 22 22 22 21 20 20 20 19 18 18 18 18 18 18 18 18 18
37 36 35 35 34 35 35 35 35 35 35 35 34 34 33 33 32 31 31 30 28 27 25 24 23 23 23 22 22 22 22 22 21 20 20 19 19 19 20 19 19 19 20 20
36 35 34 33 34 34 35 35 36 36 35 34 34 34 34 33 32 31 30 29 28 27 26 25 25 24 24 23 22 22 22 22 22 21 21 21 20 21 21 21 20 20 20 20
34 34 33 33 34 34 34 34 34 34 34 34 33 33 33 33 32 31 29 27 28 27 27 26 26 25 24 23 23 22 22 22 22 23 22 22 22 22 22 21 21 21 21 21
32 32 32 32 33 32 33 32 32 32 33 32 32 33 32 32 31 29 28 27 26 26 26 26 26 25 24 23 23 23 23 23 23 23 23 23 23 23 23 22 22 23 22 22
31 32 32 31 32 32 31 31 31 31 32 33 32 32 32 31 30 29 28 27 26 26 26 26 25 25 24 24 23 23 23 23 23 23 23 23 23 22 23 22 23 23 23 23
30 29 30 30 30 30 29 29 30 30 31 32 32 33 32 32 31 28 27 27 26 26 25 25 24 24 24 24 23 23 23 23 23 23 23 23 23 23 23 23 23 23 24 24
30 29 29 29 30 30 29 29 29 30 30 32 32 32 32 30 29 28 27 27 26 26 26 25 24 24 24 24 24 24 24 24 23 23 23 24 24 24 24 24 24 24 25 25
29 29 29 29 29 29 29 28 27 28 29 30 31 31 31 30 30 29 28 27 27 26 25 24 24 24 24 24 24 24 24 24 24 24 23 23 24 24 24 25 25 25 25 25
28 28 28 28 28 29 28 27 27 26 26 27 27 27 27 27 28 28 26 26 27 25 24 24 23 23 23 23 24 24 24 24 23 23 22 23 23 24 24 23 23 23 24 24
28 28 29 29 29 29 27 26 25 26 24 25 25 26 26 25 26 26 26 25 26 25 24 24 23 23 22 23 23 23 24 24 22 22 21 22 22 22 23 22 22 22 23 24
24 25 26 26 27 27 25 25 25 25 24 24 24 24 24 25 25 25 25 25 24 24 24 24 23 23 22 22 22 22 22 22 22 21 21 21 21 21 21 21 22 23 24 25
22 23 23 24 24 24 24 23 23 23 23 24 24 24 24 24 24 24 24 24 24 24 23 23 22 21 21 21 21 21 21 21 21 20 20 20 20 21 22 22 23 24 25 25
21 21 21 22 22 22 22 22 23 23 23 23 23 24 23 23 23 23 23 23 23 23 22 22 22 22 21 20 20 20 21 21 20 20 20 20 21 21 22 22 23 24 25 26
20 20 21 21 21 20 20 20 21 21 21 21 21 21 21 21 21 22 22 22 21 21 21 21 21 21 21 21 21 21 21 21 21 21 21 21 22 22 23 24 25 25 26 26
18 18 19 19 20 20 20 20 20 20 20 19 19 20 20 20 20 20 20 21 21 20 20 20 20 21 21 21 21 22 22 22 22 23 23 23 23 23 24 24 25 25 25 25
18 18 18 18 19 19 19 18 18 18 17 17 17 18 18 18 18 19 19 19 20 20 20 19 20 21 21 22 22 22 22 22 22 22 22 23 23 24 24 24 25 25 25 24
17 18 18 17 17 17 17 17 18 17 17 17 17 18 18 18 18 18 18 19 19 19 20 20 20 20 20 21 21 21 22 21 21 22 23 23 24 24 25 26 25 25 24 24
Wind_Direction
220 220 223 224 222 221 223 225 228 229 229 231 236 239 242 246 252 256 258 261 263 267 268 272 272 272 266 261 264 266 267 266 271 275 278 279 284 289 292 291 292 289 289 287
222 221 223 224 224 224 224 225 228 229 229 233 237 239 243 248 253 256 259 263 266 271 274 274 272 271 269 268 267 268 269 265 266 272 276 276 279 283 288 290 288 287 286 287
223 223 224 225 225 227 227 226 227 228 230 234 239 242 246 251 254 256 259 260 263 269 271 272 272 271 270 268 270 269 270 268 268 272 274 277 278 281 286 288 287 285 286 288
224 224 224 224 226 227 229 229 230 231 231 234 240 244 247 249 254 259 261 259 261 263 264 267 268 269 270 270 270 270 269 269 273 273 273 278 279 280 282 283 284 284 284 286
223 224 225 224 226 226 228 229 231 232 233 236 241 244 248 252 254 260 260 260 261 261 265 265 265 266 267 267 268 270 271 271 273 275 276 278 279 281 280 280 281 284 286 290
225 225 225 225 227 229 230 231 232 235 236 238 241 244 248 252 256 256 257 258 261 261 263 263 264 264 263 263 267 269 271 274 275 276 279 279 278 278 277 277 281 284 287 291
226 227 228 228 229 231 233 234 234 237 239 240 243 246 249 252 254 252 254 256 259 261 262 262 263 264 263 262 265 268 270 274 276 277 278 277 276 273 274 276 280 284 285 288
225 227 228 230 231 232 235 236 236 237 239 241 244 247 250 252 254 256 253 254 257 260 261 263 264 264 263 261 263 266 270 274 275 277 276 277 273 274 275 277 279 281 282 285
228 230 231 231 233 234 235 237 237 238 239 241 244 247 250 252 254 256 256 256 257 258 261 262 263 262 263 260 262 265 269 270 272 275 276 277 275 277 277 279 281 281 282 284
230 230 230 229 232 233 234 235 236 238 238 241 243 247 249 251 253 255 255 256 255 256 258 260 261 262 261 259 261 264 268 268 270 274 275 276 276 277 278 279 279 280 281 283
232 233 233 231 230 231 233 235 236 237 239 242 244 246 249 251 252 255 257 256 256 256 256 257 260 259 260 262 263 264 266 266 268 271 274 275 275 276 278 277 276 277 280 283
234 234 234 232 232 235 236 237 239 239 240 243 244 246 248 250 251 253 254 255 256 256 256 256 257 257 257 260 263 264 264 266 268 270 272 274 274 275 275 276 275 276 279 280
235 234 235 235 237 239 239 239 239 240 242 245 245 245 247 250 251 251 252 252 253 254 256 256 256 256 257 258 260 263 264 265 267 269 271 273 273 273 274 274 274 276 277 279
236 235 236 237 237 238 237 239 241 243 244 245 247 247 249 250 249 248 247 250 250 251 253 254 254 254 255 256 258 261 263 264 267 268 272 273 273 273 272 273 275 276 279 281
237 238 238 238 240 239 238 239 241 243 245 247 247 248 249 248 247 249 248 248 249 250 252 252 253 252 252 255 257 260 263 265 267 268 271 273 274 272 272 274 275 276 279 282
236 237 238 240 240 240 241 242 243 245 247 247 246 246 247 247 246 246 247 247 248 248 249 250 250 251 252 254 256 259 263 264 266 268 269 271 274 276 277 277 277 278 280 282
238 240 241 242 242 243 242 243 244 245 247 248 248 247 247 246 244 244 245 244 245 247 248 250 250 252 254 255 256 258 261 264 266 267 268 271 272 274 278 278 278 279 280 282
237 238 240 240 241 243 243 243 244 245 246 247 247 245 244 245 245 244 243 242 243 244 246 249 250 252 252 254 255 258 261 264 267 268 269 270 271 274 276 278 279 279 279 281
235 235 237 239 240 243 245 245 244 244 245 246 246 243 243 243 242 242 241 240 241 244 247 248 249 250 252 255 258 260 263 265 268 268 268 270 271 273 277 279 278 280 281 282
234 235 237 238 240 241 243 243 242 241 242 243 243 243 242 240 239 238 239 240 241 243 246 248 250 252 254 257 260 262 263 265 267 266 268 272 272 273 276 277 280 282 284 285
233 233 235 236 238 239 241 240 240 239 239 240 242 241 240 238 237 237 240 242 243 243 244 246 249 251 253 256 258 260 263 264 265 267 270 273 274 274 275 279 281 284 286 287
233 231 233 235 238 239 239 240 240 240 240 241 241 239 237 236 235 236 238 240 241 241 242 246 249 251 253 254 256 257 261 264 266 267 270 274 277 277 278 282 285 286 288 289
231 231 233 235 236 238 239 239 239 239 240 239 237 235 234 233 232 233 235 237 237 239 241 244 248 251 250 251 252 256 261 265 267 271 273 276 280 282 282 283 285 287 287 290
229 229 232 233 234 234 235 237 238 237 237 236 233 232 232 230 228 231 233 234 236 238 240 242 245 247 249 253 256 258 262 265 268 271 274 277 281 283 285 286 286 287 288 289
227 228 229 229 229 231 233 234 234 233 233 232 229 228 228 229 230 233 234 234 235 238 239 242 245 249 252 255 258 261 264 267 271 272 272 275 279 283 285 287 288 289 290 291
224 224 224 226 227 228 229 230 229 227 228 230 228 226 226 227 229 230 232 234 235 237 241 245 248 250 253 258 261 262 265 269 271 271 272 277 281 283 284 287 290 290 290 292
222 223 224 226 228 226 226 226 227 227 229 231 229 225 225 226 228 231 233 235 237 240 244 248 251 254 257 259 261 262 265 268 272 275 277 280 282 282 283 286 288 290 292 293
Height
5842 5846 5849 5852 5856 5859 5862 5865 5868 5872 5875 5877 5878 5880 5882 5884 5885 5887 5888 5889 5890 5890 5890 5891 5891 5892 5892 5892 5892 5892 5892 5892 5891 5891 5890 5889 5889 5888 5887 5886 5885 5884 5883 5882
5836 5840 5843 5847 5851 5854 5857 5859 5862 5865 5868 5870 5872 5875 5877 5879 5881 5882 5884 5884 5885 5886 5887 5887 5888 5888 5888 5888 5888 5888 5888 5888 5888 5887 5887 5886 5885 5885 5883 5882 5881 5880 5880 5879
5831 5835 5838 5842 5846 5848 5851 5853 5857 5859 5863 5865 5867 5869 5872 5874 5876 5878 5879 5880 5880 5881 5882 5883 5883 5884 5884 5883 5884 5884 5884 5884 5884 5883 5883 5882 5882 5881 5880 5878 5878 5877 5876 5875
5825 5829 5832 5839 5840 5843 5845 5848 5851 5854 5857 5860 5862 5865 5867 5869 5871 5872 5873 5875 5876 5877 5877 5878 5879 5879 5880 5880 5880 5880 5880 5880 5879 5879 5878 5878 5877 5877 5876 5875 5874 5873 5872 5871
5818 5821 5825 5831 5834 5836 5839 5842 5845 5848 5851 5854 5857 5860 5861 5863 5865 5867 5868 5870 5871 5872 5872 5873 5874 5874 5875 5876 5876 5876 5876 5876 5875 5875 5874 5873 5872 5871 5871 5870 5869 5869 5868 5867
5811 5814 5818 5825 5828 5830 5834 5836 5839 5841 5845 5848 5851 5853 5856 5857 5858 5861 5863 5864 5865 5866 5867 5868 5869 5869 5870 5871 5871 5871 5872 5871 5871 5870 5869 5868 5867 5867 5866 5866 5865 5864 5864 5863
5803 5807 5811 5817 5821 5824 5828 5831 5833 5835 5838 5841 5844 5848 5850 5851 5852 5854 5856 5858 5859 5860 5861 5862 5863 5864 5865 5865 5866 5866 5866 5866 5866 5865 5864 5863 5862 5862 5862 5861 5861 5860 5859 5858
5796 5799 5806 5810 5813 5817 5820 5823 5826 5829 5831 5834 5837 5840 5843 5844 5846 5847 5849 5851 5852 5854 5855 5857 5858 5858 5859 5859 5860 5860 5860 5860 5860 5860 5859 5859 5858 5857 5857 5857 5856 5855 5855 5854
5789 5795 5799 5802 5805 5809 5812 5816 5819 5822 5824 5827 5829 5832 5835 5837 5839 5841 5842 5844 5846 5847 5849 5850 5851 5852 5853 5853 5854 5854 5854 5854 5854 5854 5854 5854 5853 5852 5852 5852 5851 5851 5850 5849
5782 5786 5790 5794 5798 5801 5804 5808 5811 5814 5817 5820 5822 5824 5827 5829 5832 5834 5835 5837 5838 5840 5842 5843 5844 5845 5846 5847 5847 5848 5848 5848 5849 5849 5848 5849 5849 5848 5847 5847 5846 5846 5845 5844
5774 5778 5782 5787 5790 5793 5796 5799 5802 5806 5809 5812 5814 5817 5819 5821 5824 5826 5828 5829 5831 5833 5835 5836 5837 5838 5839 5840 5841 5841 5842 5842 5843 5843 5843 5843 5843 5843 5842 5841 5841 5840 5840 5839
5767 5772 5775 5779 5783 5785 5787 5791 5794 5797 5801 5803 5806 5809 5811 5813 5815 5818 5820 5822 5824 5825 5827 5829 5830 5831 5832 5834 5835 5835 5836 5836 5836 5837 5837 5837 5837 5837 5836 5836 5835 5834 5833 5833
5760 5764 5767 5771 5774 5776 5778 5782 5785 5788 5792 5795 5797 5800 5802 5804 5806 5809 5811 5814 5816 5817 5819 5821 5822 5824 5825 5827 5828 5829 5829 5830 5830 5831 5831 5830 5830 5830 5830 5829 5828 5827 5827 5826
5752 5756 5759 5763 5766 5768 5771 5773 5777 5780 5783 5786 5789 5791 5794 5796 5798 5800 5803 5806 5808 5810 5811 5813 5814 5816 5818 5820 5821 5822 5823 5823 5824 5824 5824 5824 5824 5823 5823 5822 5821 5821 5820 5819
5744 5748 5751 5754 5757 5760 5763 5766 5769 5772 5775 5777 5780 5783 5785 5787 5790 5792 5795 5798 5800 5802 5803 5805 5807 5809 5811 5813 5814 5815 5816 5817 5817 5817 5817 5817 5816 5816 5816 5815 5814 5813 5813 5812
5737 5740 5743 5746 5749 5753 5756 5759 5761 5764 5767 5769 5771 5774 5777 5780 5782 5785 5787 5790 5792 5795 5797 5798 5800 5802 5804 5805 5807 5808 5809 5810 5810 5810 5810 5810 5810 5809 5808 5808 5807 5806 5805 5804
5728 5732 5735 5738 5742 5745 5747 5750 5753 5755 5758 5760 5762 5765 5768 5771 5774 5776 5779 5782 5785 5788 5790 5792 5794 5795 5797 5799 5800 5802 5802 5802 5803 5803 5803 5803 5803 5802 5801 5801 5800 5799 5798 5797
5720 5723 5727 5731 5734 5736 5739 5741 5744 5746 5748 5750 5752 5755 5759 5762 5764 5767 5770 5774 5778 5781 5783 5785 5787 5789 5791 5792 5793 5794 5795 5796 5796 5796 5796 5796 5796 5795 5794 5794 5793 5791 5790 5789
5712 5716 5719 5723 5726 5728 5731 5733 5736 5738 5740 5741 5743 5746 5750 5753 5757 5760 5764 5767 5770 5774 5776 5778 5780 5782 5784 5785 5787 5787 5788 5789 5789 5789 5789 5789 5789 5788 5787 5786 5785 5784 5783 5781
5706 5709 5712 5715 5718 5721 5723 5726 5728 5731 5733 5735 5737 5739 5742 5746 5750 5753 5757 5760 5764 5767 5769 5771 5773 5775 5777 5778 5779 5780 5781 5781 5782 5782 5782 5782 5781 5781 5780 5779 5778 5777 5775 5774
5699 5702 5705 5708 5711 5714 5716 5719 5722 5724 5726 5728 5730 5733 5736 5740 5743 5746 5750 5753 5757 5759 5762 5764 5766 5768 5770 5771 5773 5773 5774 5775 5775 5776 5775 5775 5774 5773 5773 5772 5771 5769 5768 5766
5693 5696 5699 5702 5704 5707 5710 5713 5715 5718 5720 5722 5724 5727 5730 5733 5737 5740 5743 5746 5749 5752 5755 5758 5760 5762 5763 5765 5766 5767 5768 5768 5769 5769 5769 5768 5768 5767 5766 5765 5763 5762 5760 5759
5687 5690 5693 5695 5698 5701 5704 5707 5710 5712 5714 5717 5719 5722 5724 5727 5730 5734 5737 5740 5743 5746 5749 5752 5754 5756 5757 5758 5759 5760 5761 5762 5762 5762 5762 5762 5761 5760 5759 5758 5756 5755 5753 5751
5682 5685 5688 5690 5693 5696 5699 5701 5704 5707 5709 5711 5714 5716 5719 5722 5725 5728 5731 5734 5737 5740 5743 5745 5748 5749 5751 5752 5753 5754 5755 5755 5755 5755 5755 5755 5754 5753 5752 5751 5749 5748 5746 5744
5678 5681 5684 5687 5689 5692 5694 5697 5699 5701 5704 5706 5708 5711 5714 5717 5720 5723 5726 5729 5732 5734 5737 5739 5742 5743 5745 5746 5747 5748 5748 5748 5749 5748 5748 5748 5747 5746 5745 5744 5742 5740 5738 5736
5675 5677 5680 5682 5685 5688 5690 5692 5695 5697 5699 5702 5704 5707 5710 5712 5715 5718 5721 5724 5727 5729 5731 5733 5735 5737 5738 5739 5740 5741 5741 5741 5742 5741 5741 5741 5740 5739 5738 5736 5735 5733 5731 5729
5671 5673 5676 5678 5681 5683 5686 5688 5691 5693 5696 5698 5701 5703 5706 5708 5711 5713 5716 5719 5722 5724 5726 5728 5729 5731 5732 5733 5734 5734 5735 5735 5735 5735 5734 5733 5733 5731 5730 5729 5727 5725 5724 5722